Location: Coed Ely
(51.5661°N, 3.4150°W)
Time: 19:46:11
(UTC+00:00)

MetOp-A - Pass Details

Date: 28 January 2021
Orbit: 819 x 821 km, 98.5° (Epoch: 04 March)

Event Time Altitude Azimuth Distance (km) Brightness Sun altitude
Exits shadow 19:37:42 66° 117° (ESE) 896 4.0 -25.0°
Maximum altitude 19:38:17 73° 72° (ENE) 862 4.0 -25.0°
Drops below altitude 10° 19:43:39 10° 348° (NNW) 2,430 6.7 -25.9°
Sets 19:46:00 0° 347° (NNW) 3,367 7.5 -26.2°
